DateTimeUTC,F1_A11,F1_S11,BsB_S11,BsG_S11,BsR_S11,BbsB_S11,BbsG_S11,BbsR_S11,BaB_A11,BaG_A11,BaR_A11,Tu_S11,T_S11,Uu_S11,U_S11,P_S11,T1_A11
2021-05-08T08:00:00Z,00000200,21000000,,,,,,,0000.00,0000.11,-000.41,15.9,23.4,,00.0,0671.4,30.9
2021-05-08T08:01:00Z,00000200,21000000,,,,,,,-000.01,0000.07,0000.33,15.9,23.4,,00.0,0671.4,30.9
2021-05-08T08:02:00Z,00000200,21000000,,,,,,,0000.52,-000.04,0000.22,15.9,23.4,,00.0,0671.4,30.9
2021-05-08T08:03:00Z,00000200,61000000,,,,,,,-000.45,0000.06,-000.28,15.9,23.4,,00.0,0671.4,30.9
2021-05-08T08:04:00Z,00000200,41000000,-000.36,0000.15,-000.10,0000.27,0000.17,0000.02,-000.06,-000.01,0000.38,16.3,23.3,,00.0,0672.3,30.9
2021-05-08T08:05:00Z,00000200,01000000,-000.43,0000.04,0000.03,0000.29,0000.37,-000.15,0000.03,-000.14,-000.42,16.4,23.3,,00.0,0672.4,30.9
2021-05-08T08:06:00Z,00000200,01000000,0000.01,0000.13,-000.05,0000.09,0000.06,0000.06,0000.17,0000.21,0000.02,16.4,23.3,,00.0,0672.4,30.9
2021-05-08T08:07:00Z,00000200,01000000,-000.07,-000.28,0000.18,-000.14,-000.08,0000.28,0000.40,0000.27,0000.12,16.3,23.2,,00.0,0672.4,30.9
2021-05-08T08:08:00Z,00000200,01000000,0000.13,0000.23,-000.02,-000.06,0000.33,-000.14,-000.37,-000.34,0000.01,16.3,23.2,,00.0,0672.4,30.9
2021-05-08T08:09:00Z,00000200,01000000,-000.51,-000.09,0000.15,0000.36,-000.18,0000.12,0000.49,0000.47,0000.07,16.3,23.2,,00.0,0672.4,30.9
2021-05-08T08:10:00Z,00000200,01000000,-000.42,0000.22,-000.27,0000.85,-000.08,-000.04,0000.13,-000.05,0000.17,16.2,23.1,,00.0,0672.4,30.9
2021-05-08T08:11:00Z,00000200,01000000,-000.20,-000.22,-000.02,0000.45,0000.03,-000.06,-000.08,0000.07,0000.08,16.2,23.1,,00.0,0672.4,30.9
2021-05-08T08:12:00Z,00000200,01000000,-000.26,0000.17,0000.09,0000.08,0000.16,-000.07,0000.33,0000.47,0000.47,16.3,23.2,,00.0,0672.4,30.9
2021-05-08T08:13:00Z,00000200,01000000,0000.27,-000.03,-000.09,0000.39,0000.36,0000.11,0000.01,-000.22,-000.24,16.3,23.2,,00.0,0672.4,30.9
2021-05-08T08:14:00Z,00000200,01000000,0000.25,-000.13,0000.22,0000.10,-000.05,0000.00,-000.42,-000.18,0000.01,16.3,23.2,,00.0,0672.4,30.9
2021-05-08T08:15:00Z,00000200,01000000,0000.64,-000.37,-000.10,0000.19,0000.18,-000.07,0000.10,0000.17,-000.11,16.3,23.2,,00.0,0672.4,30.9
2021-05-08T08:16:00Z,00000200,01000000,-000.26,-000.17,-000.15,-000.18,0000.08,-000.07,0000.24,0000.13,0000.24,16.3,23.1,,00.0,0672.4,30.9
2021-05-08T08:17:00Z,00000200,01000000,0000.31,-000.07,-000.23,0000.63,-000.25,0000.05,0000.11,0000.02,-000.11,16.2,23.1,,00.0,0672.3,30.9
2021-05-08T08:18:00Z,00000200,01000000,-000.51,-000.11,0000.02,0000.30,0000.21,0000.05,0000.01,0000.12,0000.13,16.2,23.1,,00.0,0672.3,30.9
2021-05-08T08:19:00Z,00000200,01000000,-000.36,0000.03,-000.10,0000.23,0000.24,0000.13,0000.49,-000.11,-000.11,16.2,23.1,,00.0,0672.3,30.9
2021-05-08T08:20:00Z,00000200,01000000,0000.41,0000.07,0000.00,-000.33,0000.10,-000.08,0000.01,0000.52,0000.31,16.1,23.1,,00.0,0672.3,30.8
2021-05-08T08:21:00Z,00000200,01000000,0000.23,0000.04,0000.04,0000.40,0000.06,0000.19,-000.08,0000.20,-000.13,16.1,23.0,,00.0,0672.2,30.8
2021-05-08T08:22:00Z,00000200,01000000,-000.34,-000.21,0000.06,0000.06,0000.09,0000.17,0000.54,-000.10,0000.06,16.1,23.0,,00.0,0672.2,30.8
2021-05-08T08:23:00Z,00000200,01000000,0000.11,-000.03,0000.12,-000.22,0000.18,0000.25,-000.20,0000.30,0000.04,16.0,23.0,,00.0,0672.3,30.8
2021-05-08T08:24:00Z,00000200,01000000,0000.25,0000.18,0000.15,0000.28,-000.07,0000.17,0001.95,0002.00,0001.79,16.0,23.0,,00.0,0672.2,30.8
2021-05-08T08:25:00Z,00000200,01000000,-000.61,-000.16,0000.04,0000.25,0000.16,0000.17,-000.58,-000.76,-000.52,16.0,22.9,,00.0,0672.2,30.8
2021-05-08T08:26:00Z,00000200,01000000,-000.15,0000.03,0000.04,0000.30,0000.11,-000.02,-000.10,-000.53,0000.07,16.0,22.9,,00.0,0672.2,30.8
2021-05-08T08:27:00Z,00000200,01000000,-000.55,0000.00,0000.14,0000.10,0000.29,0000.02,-000.27,0000.22,-000.29,16.0,22.9,,00.0,0672.2,30.9
2021-05-08T08:28:00Z,00000200,01000000,-000.58,-000.08,-000.08,-000.04,0000.23,-000.23,-000.25,-000.30,0000.05,16.1,22.9,,00.0,0672.2,30.9
2021-05-08T08:29:00Z,00000200,01000000,-000.63,0000.33,-000.04,-000.07,0000.02,-000.10,-000.01,0000.23,-000.11,16.1,23.0,,00.0,0672.1,30.9
2021-05-08T08:30:00Z,00000200,01000000,-000.04,-000.21,0000.17,0000.81,0000.22,0000.30,0000.51,0000.05,-000.13,16.2,23.0,,00.0,0672.1,30.9
2021-05-08T08:31:00Z,00000200,01000000,-000.36,-000.02,0000.05,0000.47,0000.02,0000.03,-000.00,0000.00,0000.15,16.3,23.0,,00.0,0672.1,30.9
2021-05-08T08:32:00Z,00000200,01000000,-000.48,-000.14,0000.05,0000.20,0000.01,-000.08,0000.20,0000.12,0000.20,16.3,23.1,,00.0,0672.1,30.9
2021-05-08T08:33:00Z,00000200,01000000,-000.03,0000.02,-000.13,0000.49,0000.14,-000.12,0000.09,0000.05,0000.04,16.4,23.1,,00.0,0672.1,30.9
2021-05-08T08:34:00Z,00000200,01000000,-000.51,-000.09,-000.03,0000.54,0000.27,-000.01,-000.11,0000.01,0000.07,16.5,23.1,,00.0,0672.1,30.9
2021-05-08T08:35:00Z,00000200,01000000,-000.35,0000.19,-000.02,0000.18,0000.03,0000.12,0000.24,0000.44,0000.40,16.5,23.2,,00.0,0672.1,30.9
2021-05-08T08:36:00Z,00000200,01000000,0000.03,0000.12,0000.15,-000.09,0000.30,0000.19,0000.28,-000.25,0000.03,16.6,23.2,,00.0,0672.1,31.0
2021-05-08T08:37:00Z,00000200,01000000,-000.13,0000.13,-000.13,-000.25,0000.11,0000.24,0000.08,0000.72,0000.25,16.6,23.3,,00.0,0672.1,31.0
2021-05-08T08:38:00Z,00000200,01000000,-000.08,0000.32,0000.20,0000.16,0000.16,-000.08,0000.29,-000.23,0000.17,16.7,23.3,,00.0,0672.1,31.0
2021-05-08T08:39:00Z,00000200,01000000,-000.73,-000.30,-000.08,0000.35,0000.17,-000.08,-000.26,0000.19,-000.17,16.8,23.3,,00.0,0672.1,31.0
2021-05-08T08:40:00Z,00000200,01000000,0000.07,0000.37,-000.09,0000.34,0000.30,0000.05,0000.31,0000.15,0000.19,16.8,23.4,,00.0,0672.1,31.0
2021-05-08T08:41:00Z,00000200,01000000,-000.86,-000.04,-000.02,0000.14,0000.30,-000.02,-000.13,0000.13,-000.01,16.8,23.4,,00.0,0672.1,31.0
2021-05-08T08:42:00Z,00000200,01000000,-000.44,0000.14,0000.02,0000.02,0000.13,0000.36,0000.18,0000.04,0000.12,16.8,23.4,,00.0,0672.1,31.0
2021-05-08T08:43:00Z,00000200,01000000,-000.36,-000.34,0000.32,0000.09,-000.02,0000.13,0000.44,0000.19,0000.22,16.8,23.4,,00.0,0672.1,31.0
2021-05-08T08:44:00Z,00000200,01000000,-000.09,0000.12,-000.01,0000.47,0000.01,0000.09,-000.13,-000.36,0000.11,16.8,23.4,,00.0,0672.1,30.9
2021-05-08T08:45:00Z,00000200,01000000,-000.37,-000.17,0000.04,0000.13,0000.22,-000.09,0000.45,0000.55,0000.32,16.7,23.4,,00.0,0672.1,30.9
2021-05-08T08:46:00Z,00000200,01000000,-000.05,-000.02,0000.23,0000.45,0000.20,-000.13,0000.19,0000.13,-000.29,16.7,23.4,,00.0,0672.1,30.9
2021-05-08T08:47:00Z,00000200,01000000,0000.22,-000.09,0000.14,-000.25,0000.13,0000.15,0000.04,0000.10,0000.30,16.7,23.4,,00.0,0672.1,30.9
2021-05-08T08:48:00Z,00000200,01000000,0000.24,-000.05,-000.02,0000.24,-000.14,0000.04,0000.02,0000.32,-000.40,16.6,23.3,,00.0,0672.2,30.9
2021-05-08T08:49:00Z,00000200,01000000,-000.36,-000.31,-000.02,0000.63,0000.03,-000.05,0000.01,-000.28,0000.17,16.6,23.3,,00.0,0672.1,30.9
2021-05-08T08:50:00Z,00000200,01000000,-000.21,0000.32,0000.24,0000.25,0000.23,-000.01,0000.26,0000.37,0000.39,16.5,23.3,,00.0,0672.1,30.9
2021-05-08T08:51:00Z,00000200,01000000,-000.05,-000.05,0000.19,0000.37,0000.10,0000.22,0000.08,-000.02,-000.19,16.5,23.3,,00.0,0672.1,30.9
2021-05-08T08:52:00Z,00000200,01000000,-000.47,-000.08,-000.32,0000.16,0000.24,-000.07,0000.23,0000.23,0000.05,16.5,23.2,,00.0,0672.1,30.9
2021-05-08T08:53:00Z,00000200,01000000,-000.18,0000.01,-000.05,0000.32,0000.34,-000.19,-000.50,0000.01,0000.18,16.4,23.2,,00.0,0672.1,30.9
2021-05-08T08:54:00Z,00000200,01000000,-000.39,0000.06,0000.05,-000.04,0000.05,-000.05,0000.45,0000.02,0000.04,16.4,23.2,,00.0,0672.1,30.8
2021-05-08T08:55:00Z,00000200,01000000,0000.08,-000.12,0000.02,-000.11,0000.06,0000.08,0000.34,0000.17,-000.13,16.3,23.2,,00.0,0672.1,30.8
2021-05-08T08:56:00Z,00000200,01000000,-000.45,0000.24,0000.17,0000.30,0000.14,0000.43,0000.05,0000.01,0000.25,16.3,23.1,,00.0,0672.0,30.8
2021-05-08T08:57:00Z,00000200,41000000,,,,,,,-000.32,-000.36,-000.24,16.4,23.2,,00.0,0672.0,30.8
2021-05-08T08:58:00Z,00000200,61000000,,,,,,,-000.15,0000.10,0000.02,16.0,23.3,,00.0,0671.0,30.8
2021-05-08T08:59:00Z,00000200,21000000,,,,,,,0000.52,0000.47,-000.06,15.9,23.4,,00.0,0671.0,30.8
